Flag for Finland Weather past 2 weeks in Vaasa, Finland

Now
86 °F

Passing clouds.


Feels Like: 85 °F
Forecast: 62 / 78 °F
Wind: 7 mph from Northwest

Location: Vaasa Airport

Current Time: Jul 23, 2014 at 7:11:22 PM

Latest Report: Jul 23, 2014 at 6:20 PM


Visibility: N/A

Pressure: 30.18 "Hg

Humidity: 35%

Dew point: 55 °F

Location of VaasaLocation

Historic Weather in Vaasa — Graph

°F

Vaasa temperature yesterday

Maximum temperature yesterday: 81 °F (at 2:50 PM)
Minimum temperature yesterday: 54 °F (at 4:20 AM)
Average temperature yesterday: 70 °F

Past Weeks' High & Low Weather Summary

 TemperatureHumidityPressure
High86 °F (Jul 23, 4:20 PM)100% (Jul 9, 1:20 AM)30.27 "Hg (Jul 9, 1:20 AM)
Low46 °F (Jul 12, 3:50 AM)31% (Jul 12, 1:20 PM)29.77 "Hg (Jul 15, 2:50 PM)
Average67 °F75%30.07 "Hg
* Reported Jul 8 5:20 PM — Jul 23 5:50 PM, Vaasa, Weather by CustomWeather, © 2014

Note: Actual official high and low records may vary slightly from our data, if they occured in-between our weather recording intervals... More about our weather records

Advertising

Vaasa weather history for previous 24 hours

 ConditionsComfort  
Time TempWeatherWind HumidityBarometerVisibility
5:50 PM
Jul 23
86 °FPassing clouds.7 mph38%30.18 "HgN/A
5:20 PM86 °FPassing clouds.7 mph35%30.18 "HgN/A
4:50 PM86 °FSunny.8 mph38%30.18 "Hg10 mi
4:20 PM86 °FPassing clouds.5 mph33%30.18 "HgN/A
11:50 AM79 °FPassing clouds.5 mph61%30.21 "HgN/A
10:50 AM77 °FPassing clouds.6 mph65%30.21 "HgN/A
8:50 AM72 °FPassing clouds.7 mph73%30.21 "HgN/A
8:20 AM70 °FPassing clouds.5 mph78%30.21 "HgN/A
7:50 AM68 °FSunny.6 mph78%30.21 "Hg10 mi
7:20 AM66 °FPassing clouds.5 mph83%30.21 "HgN/A
6:50 AM64 °FPassing clouds.5 mph88%30.21 "HgN/A
6:20 AM63 °FPassing clouds.5 mph88%30.21 "HgN/A
5:50 AM61 °FSunny.5 mph94%30.21 "Hg10 mi
5:20 AM61 °FClear.3 mph88%30.21 "Hg10 mi
4:50 AM61 °FClear.5 mph88%30.21 "Hg10 mi
4:20 AM61 °FClear.3 mph94%30.24 "Hg10 mi
3:50 AM61 °FClear.3 mph94%30.24 "Hg10 mi
2:50 AM61 °FClear.3 mph88%30.24 "Hg10 mi
7:50 PM
Jul 22
77 °FSunny.7 mph42%30.24 "Hg10 mi
7:20 PM77 °FPassing clouds.6 mph44%30.24 "HgN/A
Weather by CustomWeather, © 2014

See weather overviewHow to use our weather pages